Pincher Creek Airport, Alberta

11:24 PM MDT on August 31, 2016 (GMT -0600)
Pincher Creek

Weather History for CZPC - September, 2013

Change the Weather History Date:

Friday, September 27, 2013

  Actual Average Record
Temperature  
Mean Temperature 42 °F -  
Max Temperature 52 °F 58 °F 73 °F (2012)
Min Temperature 32 °F 35 °F 26 °F (1999)
Degree Days  
Heating Degree Days 23    
Moisture  
Dew Point 30 °F    
Average Humidity 59    
Maximum Humidity 81    
Minimum Humidity 32    
Precipitation  
Precipitation 0.00 in - - ()
Sea Level Pressure  
Sea Level Pressure 29.88 in    
Wind  
Wind Speed 16 mph ()    
Max Wind Speed 33 mph    
Max Gust Speed 47 mph    
Visibility 9.1 miles    
Events      
Averages and records for this station are not official NWS values.
T = Trace of Precipitation, MM = Missing Value Source: Averaged Metar Reports

Daily Weather History Graph

Daily Weather History Graph

Search for Another Location

Airport or City:

Trip Planner

Search our weather history database for the weather conditions in past years. The results will help you decide how hot, cold, wet, or windy it might be!

Date:

Astronomy

Sep. 27, 2013 Rise Set
Actual Time 7:30 AM MDT 7:22 PM MDT
Civil Twilight 6:58 AM MDT 7:54 PM MDT
Nautical Twilight 6:21 AM MDT 8:31 PM MDT
Astronomical Twilight 5:42 AM MDT 9:09 PM MDT
Moon No Moon Rise 3:32 PM MDT (9/27)
Length of Visible Light 12h 55m
Length of Day
11h 52m
Last Quarter, 44% of the Moon is Illuminated
Sep 27
Last Quarter
Oct 4
New
Oct 11
First Quarter
Oct 18
Full
Oct 26
Last Quarter

Hourly Weather History & Observations

Time (MDT) Temp. Windchill Dew Point Humidity Pressure Visibility Wind Dir Wind Speed Gust Speed Precip Events Conditions
12:00 AM 41 °F - 31 °F 58% 30.01 in 10 mi WSW 10.4 mph - -   Overcast
12:00 AM 41.0 °F 34.7 °F 32.0 °F 70% 30.01 in 9.0 mi WSW 10.4 mph - N/A   Overcast
1:00 AM 35.6 °F 31.7 °F 30.2 °F 81% 30.00 in 9.0 mi NW 4.6 mph - N/A   Clear
2:00 AM 37.4 °F 30.3 °F 30.2 °F 75% 29.97 in 9.0 mi West 10.4 mph - N/A   Clear
3:00 AM 35.6 °F 28.6 °F 30.2 °F 81% 29.96 in 9.0 mi West 9.2 mph - N/A   Unknown
4:00 AM 35.6 °F 28.6 °F 28.4 °F 75% 29.95 in 9.0 mi WSW 9.2 mph - N/A   Clear
5:00 AM 37.4 °F 29.8 °F 30.2 °F 75% 29.94 in 9.0 mi WSW 11.5 mph - N/A   Clear
6:00 AM 36 °F - 30 °F 70% 29.92 in 10 mi West 11.5 mph - -  
6:00 AM 37.4 °F 30.3 °F 30.2 °F 75% 29.92 in 9.0 mi West 10.4 mph - N/A   Clear
7:00 AM 37.4 °F - 30.2 °F 75% - 9.0 mi North - - N/A   Unknown
8:00 AM 37.4 °F 28.9 °F 30.2 °F 75% 29.93 in 9.0 mi West 13.8 mph - N/A   Clear
8:29 AM 42.8 °F 32.9 °F 30.2 °F 61% 29.90 in 9.0 mi West 26.5 mph 33.4 mph N/A   Clear
9:00 AM 44.6 °F 35.3 °F 30.2 °F 57% 29.89 in 9.0 mi West 26.5 mph 34.5 mph N/A   Partly Cloudy
10:00 AM 46.4 °F 37.5 °F 28.4 °F 50% 29.85 in 9.0 mi WSW 27.6 mph 39.1 mph N/A   Scattered Clouds
11:00 AM 48.2 °F - 28.4 °F 46% 29.83 in 9.0 mi West 33.4 mph 43.7 mph N/A   Overcast
12:00 PM 48 °F - 28 °F 32% 29.84 in 10 mi WSW 32.2 mph - -  
12:00 PM 48.2 °F - 28.4 °F 46% 29.84 in 9.0 mi WSW 31.1 mph 41.4 mph N/A   Mostly Cloudy
1:00 PM 51.8 °F - 26.6 °F 38% 29.83 in 9.0 mi West 32.2 mph 47.2 mph N/A   Scattered Clouds
2:00 PM 51.8 °F - 28.4 °F 41% 29.81 in 9.0 mi West 33.4 mph 42.6 mph N/A   Unknown
3:00 PM 50.0 °F - 28.4 °F 43% 29.82 in 9.0 mi West 28.8 mph 42.6 mph N/A   Mostly Cloudy
4:00 PM 50.0 °F - 30.2 °F 47% 29.82 in 9.0 mi West 24.2 mph 35.7 mph N/A   Mostly Cloudy
5:00 PM 48.2 °F - 30.2 °F 50% 29.83 in 9.0 mi West 21.9 mph 31.1 mph N/A   Mostly Cloudy
6:00 PM 49 °F - 31 °F 38% 29.83 in 10 mi WSW 20.7 mph - -   Overcast
6:00 PM 50.0 °F - 30.2 °F 47% 29.83 in 9.0 mi WSW 21.9 mph 29.9 mph N/A   Overcast
7:00 PM 46.4 °F 39.2 °F 32.0 °F 57% 29.85 in 9.0 mi WSW 18.4 mph 26.5 mph N/A   Overcast
8:00 PM 44.6 °F 37.2 °F 32.0 °F 61% 29.85 in 9.0 mi West 17.3 mph 28.8 mph N/A   Scattered Clouds
8:40 PM 44.6 °F 34.9 °F 32.0 °F 61% 29.83 in 9.0 mi West 28.8 mph - N/A   Mostly Cloudy
8:45 PM 42.8 °F 32.5 °F 32.0 °F 66% 29.82 in 9.0 mi WSW 28.8 mph 34.5 mph N/A   Scattered Clouds
9:00 PM 42.8 °F 33.8 °F 32.0 °F 66% 29.83 in 9.0 mi West 21.9 mph 33.4 mph N/A   Scattered Clouds
10:00 PM 44.6 °F 36.9 °F 32.0 °F 61% 29.82 in 9.0 mi West 18.4 mph 25.3 mph N/A   Overcast
11:00 PM 42.8 °F 34.0 °F 32.0 °F 66% 29.81 in 9.0 mi West 20.7 mph 27.6 mph N/A   Scattered Clouds